Tracking 17857 objects as of 1-October-2016
HD Live streaming from Space Station
objects crossing your sky now

FLTSATCOM 7 (USA 20)

Track FLTSATCOM 7 (USA 20) now!
FLTSATCOM 7 (USA 20) is classified as:


NORAD ID: 17181
Int'l Code: 1986-096A
Perigee: 35,693.9 km
Apogee: 35,894.6 km
Inclination: 14.7 °
Period: 1,436.1 minutes
Semi major axis: 42165 km
RCS: Unknown
Launch date: December 5, 1986
Source: United States (US)
Launch site: AIR FORCE EASTERN TEST RANGE (AFETR)
Your satellite tracking list
Your tracking list is empty





NASA's NSSDC Master Catalog

Two Line Element Set (TLE):
1 17181U 86096A   16266.74107602 0.00000000  00000-0  00000-0 0    08
2 17181  14.7111   9.1749 0023795 159.0970 201.0142  1.00270000    02
Source of the keplerian elements: McCants

N2YO: 748